Wind_Speed
25 24 23 21 21 23 23 24 22 17 17 23 30 31 31 31 35 37 42 42 43 38 39 40 41 41 40 40 41 42 42 42 41 42 42 42 42 43 44 44 43 43 41 39
27 25 24 27 30 29 29 30 28 23 20 28 36 36 33 34 37 42 46 48 46 43 40 41 43 44 44 43 43 44 44 44 44 45 45 45 45 45 45 45 46 46 44 41
29 26 31 33 32 30 28 27 28 28 24 26 37 41 37 37 41 48 49 49 47 45 43 44 44 45 46 46 46 46 46 46 46 46 46 45 45 45 46 47 48 48 46 43
30 31 35 34 31 29 26 23 26 30 31 30 30 33 33 33 37 44 46 46 46 46 46 45 44 46 47 48 48 48 48 47 46 45 45 45 46 47 48 49 50 49 48 46
22 28 32 32 29 30 30 32 34 35 36 38 36 35 33 27 32 40 41 42 43 44 45 44 43 44 46 47 48 47 47 46 46 46 46 47 48 49 50 51 51 51 50 49
12 16 19 22 27 33 35 36 37 38 38 41 38 37 38 31 34 42 44 44 41 39 40 42 42 42 43 45 45 45 45 45 46 46 47 48 50 51 52 52 52 51 51 49
7 8 10 12 16 22 27 31 35 37 38 40 34 34 36 38 43 48 49 47 42 35 35 36 39 41 42 43 44 45 45 46 47 48 49 50 52 53 53 53 52 51 49 48
8 9 11 12 15 17 20 24 28 33 33 33 32 36 40 42 46 50 52 53 54 52 47 44 43 43 44 44 46 47 48 49 50 51 52 52 53 54 54 53 51 49 48 47
14 15 17 18 21 23 24 26 29 34 36 37 36 37 42 42 45 49 53 55 54 54 52 52 51 50 49 49 49 50 52 53 53 54 54 54 53 53 51 50 48 48 47 45
19 20 19 23 25 25 27 29 31 36 39 40 39 35 39 44 45 46 46 52 54 53 53 52 52 52 51 50 50 51 52 53 52 52 50 49 48 46 45 44 44 44 42 40
15 14 13 18 23 25 28 30 32 36 38 39 39 35 37 41 43 44 42 40 44 46 45 44 44 44 44 44 44 45 46 45 45 44 43 42 41 39 38 38 38 37 36 34
11 12 13 15 19 24 27 30 34 39 40 41 41 40 40 41 44 47 48 44 40 39 40 39 37 37 38 39 40 40 40 40 39 39 39 38 36 34 34 34 33 32 30 28
13 14 15 15 19 25 29 33 37 42 46 46 46 43 38 37 40 46 49 48 45 41 39 39 37 37 37 38 39 38 37 36 36 35 35 36 35 34 32 32 32 31 29 27
15 16 18 19 21 25 30 34 38 41 45 47 47 45 41 39 36 37 37 37 36 35 36 37 36 36 37 37 36 35 34 34 34 34 34 35 35 35 34 34 33 33 33 32
16 17 20 22 24 27 29 30 30 33 37 41 40 39 36 36 34 33 32 32 33 33 33 34 35 35 35 35 35 34 32 32 32 33 33 33 34 35 36 36 36 36 37 37
19 19 21 22 25 28 28 26 28 29 31 33 33 32 30 29 32 33 32 32 32 31 31 31 31 32 34 35 35 33 32 32 32 33 33 33 34 34 35 36 37 37 38 39
20 21 22 23 25 28 25 28 28 27 27 25 25 25 24 26 27 29 29 29 28 27 27 26 27 28 29 31 33 32 31 30 30 30 31 33 34 34 35 35 36 37 38 39
20 20 21 23 26 25 27 28 25 23 22 19 19 19 17 19 20 21 22 21 21 21 21 21 22 23 24 26 28 29 29 30 30 30 31 31 32 33 34 35 36 37 39 40
19 19 21 22 23 24 25 26 21 18 14 14 14 14 14 14 14 15 16 17 17 18 18 18 18 18 20 23 25 27 29 29 28 28 29 29 30 31 32 33 34 35 37 38
21 19 20 20 21 22 24 23 20 16 12 11 11 11 10 10 11 11 13 14 15 14 14 14 15 15 16 18 20 22 24 25 25 25 25 26 27 29 30 32 33 35 36 36
25 22 20 20 20 20 21 21 19 16 13 11 10 9 9 10 10 10 11 11 12 12 12 12 13 14 15 16 17 19 21 22 23 23 23 24 26 28 29 30 31 32 32 31
25 23 21 20 20 20 19 19 18 16 12 10 10 10 10 10 11 11 11 12 12 12 13 13 14 15 16 17 18 20 21 21 22 22 22 24 25 26 26 27 27 25 24 23
27 25 23 21 21 21 19 18 17 15 13 11 10 10 10 10 9 9 10 10 10 10 10 11 12 13 14 15 16 17 19 20 20 20 20 21 21 22 22 22 22 22 22 22
27 28 26 22 21 22 20 18 16 15 13 11 9 9 8 7 7 7 7 6 6 6 6 7 7 8 10 11 12 14 15 16 17 17 18 18 19 19 19 20 20 21 22 23
26 29 29 26 22 22 21 19 18 16 14 11 9 8 6 6 5 5 5 5 5 5 5 5 5 6 6 7 8 10 11 13 14 15 17 18 18 18 19 19 19 19 20 21
22 27 31 29 26 25 22 21 19 18 16 15 13 11 9 8 7 7 7 7 7 6 6 6 6 6 7 7 7 8 9 10 12 14 15 16 17 18 18 19 20 21 22 23
Wind_Direction
237 237 237 238 242 240 226 226 229 240 244 241 249 245 236 240 246 250 252 251 252 251 252 256 261 264 266 268 270 272 275 277 278 279 281 283 285 287 290 293 296 299 300 300
240 238 238 235 236 237 237 237 233 223 227 234 239 244 241 234 247 250 252 255 256 258 258 258 260 263 266 267 269 271 273 275 276 277 278 280 283 284 285 288 292 295 296 297
233 231 233 236 239 243 246 247 244 235 227 241 249 252 252 241 241 251 255 259 262 261 258 259 260 262 265 267 269 271 273 274 274 274 276 278 280 280 282 285 288 290 292 293
239 235 240 242 242 244 245 246 245 241 234 237 251 260 258 255 252 255 258 259 260 260 259 259 259 261 264 266 268 270 271 273 273 274 275 277 279 280 281 283 285 287 288 289
247 244 247 249 249 245 241 239 243 243 244 244 246 253 257 256 263 264 266 264 261 259 259 259 258 258 259 262 264 266 268 269 271 273 275 277 279 280 281 282 283 285 286 287
257 258 260 258 251 251 251 251 253 254 255 255 255 257 260 255 258 263 264 265 260 257 258 259 259 259 259 260 262 263 265 267 269 272 274 277 279 281 283 284 285 285 285 285
274 276 278 274 266 262 262 261 261 260 259 261 263 265 264 258 253 256 262 263 260 262 262 262 261 259 259 260 262 263 265 267 270 272 275 277 279 282 284 285 286 285 284 282
287 286 280 271 271 272 265 266 267 267 264 261 254 251 251 253 255 255 258 260 263 265 265 265 263 262 261 262 263 264 266 268 270 273 275 277 279 281 282 283 284 283 282 280
285 279 279 274 271 273 272 273 274 274 273 269 261 257 256 255 256 254 254 256 259 263 265 265 264 263 262 263 264 265 266 268 270 272 274 276 277 279 279 280 280 281 281 280
285 282 276 275 278 280 280 278 276 276 277 277 274 267 260 261 260 260 256 251 253 259 265 268 267 265 264 265 266 267 268 269 270 271 273 275 276 276 275 276 277 280 281 280
291 295 294 280 280 284 282 277 272 272 272 271 270 265 261 260 260 260 261 260 256 259 266 270 269 266 265 265 267 269 269 270 270 271 273 275 276 275 274 274 277 280 280 278
298 307 312 304 292 291 289 281 276 270 267 263 264 261 263 263 262 262 264 269 271 269 268 270 269 267 266 266 268 270 271 271 271 272 272 273 273 274 274 274 276 280 281 280
308 312 317 312 303 299 294 288 281 276 273 270 266 263 261 263 265 266 267 269 272 271 270 268 267 265 265 266 267 270 271 272 270 268 268 268 269 270 271 273 274 278 282 287
307 312 314 314 307 300 295 291 286 283 281 278 275 271 261 259 261 263 266 268 271 271 270 267 264 262 263 263 265 267 269 269 267 265 264 265 266 268 269 271 274 278 280 283
305 311 315 318 316 313 310 302 293 287 285 284 280 278 272 260 258 262 264 270 272 273 272 268 263 260 260 261 262 263 265 265 264 262 261 263 266 269 270 272 274 276 279 280
305 310 315 320 322 322 319 314 302 294 293 289 286 282 277 269 264 269 271 273 274 271 270 268 266 263 261 259 259 260 261 261 261 260 259 261 266 269 272 273 275 276 277 277
300 308 316 323 326 327 327 321 313 303 302 296 290 285 277 272 269 269 273 274 272 269 267 269 269 268 263 258 256 256 257 257 259 261 262 264 267 271 273 275 276 277 278 277
291 302 312 322 329 332 330 334 326 314 308 304 298 294 281 273 270 269 271 269 264 262 261 262 266 267 264 258 254 252 254 258 260 263 265 268 270 272 275 277 279 280 280 280
291 300 310 319 326 332 334 340 338 327 312 307 306 302 293 284 279 274 269 262 258 257 256 256 261 263 260 256 253 253 256 258 261 264 267 269 272 274 276 278 279 279 280 280
294 296 301 310 320 329 334 344 346 339 325 315 309 308 302 295 289 281 272 265 259 257 255 255 257 259 259 256 254 254 256 257 261 266 270 273 275 278 279 281 281 280 279 279
295 296 300 308 314 317 330 339 342 340 339 324 311 304 294 290 287 280 273 268 265 262 261 260 261 261 261 261 260 258 259 262 266 270 274 278 282 284 284 284 283 282 280 280
283 286 291 295 300 302 322 328 334 337 337 329 319 307 298 293 287 283 280 278 278 277 276 274 273 271 268 266 265 264 264 266 269 273 278 282 284 284 283 282 281 280 279 278
272 275 277 282 287 295 303 312 321 330 332 328 322 318 313 309 304 297 291 289 288 287 285 282 278 275 272 270 268 269 271 272 274 277 280 283 284 284 282 280 278 277 276 276
262 267 268 268 273 280 287 294 304 314 323 327 330 327 325 328 331 328 322 317 315 312 309 305 300 293 287 284 282 281 280 279 278 277 280 284 287 288 286 283 281 279 280 280
269 263 265 265 266 270 276 282 288 296 303 307 310 316 322 328 332 333 334 334 334 336 338 336 331 325 317 309 303 299 292 287 284 282 283 286 288 289 288 287 286 285 285 284
288 272 266 263 263 266 270 274 277 280 283 287 289 290 291 296 302 305 306 309 311 314 318 323 326 329 330 328 321 313 306 299 293 289 288 288 289 289 289 290 291 291 291 290
Height
5845 5849 5851 5853 5855 5857 5858 5861 5863 5869 5871 5872 5870 5871 5873 5873 5872 5872 5871 5874 5876 5873 5874 5880 5881 5882 5883 5885 5885 5885 5885 5885 5885 5885 5884 5883 5883 5883 5882 5882 5882 5882 5882 5882
5843 5846 5847 5847 5847 5850 5852 5854 5857 5861 5864 5865 5862 5862 5866 5867 5865 5863 5863 5866 5868 5867 5868 5873 5875 5875 5875 5877 5877 5877 5878 5878 5877 5877 5877 5877 5876 5876 5876 5876 5875 5874 5874 5874
5837 5839 5838 5840 5843 5846 5848 5850 5852 5855 5856 5857 5855 5856 5859 5860 5859 5855 5857 5859 5861 5863 5863 5864 5866 5866 5867 5867 5868 5868 5869 5869 5870 5870 5869 5869 5869 5869 5868 5868 5868 5867 5866 5866
5831 5832 5832 5835 5839 5841 5843 5845 5845 5846 5848 5849 5850 5849 5851 5852 5852 5850 5851 5852 5854 5854 5854 5856 5858 5858 5858 5858 5859 5859 5860 5860 5861 5861 5861 5861 5861 5861 5860 5860 5859 5858 5857 5856
5827 5827 5828 5832 5834 5834 5836 5836 5836 5837 5839 5840 5842 5842 5844 5847 5844 5841 5841 5843 5845 5845 5845 5846 5848 5849 5849 5849 5850 5850 5851 5851 5852 5852 5852 5852 5851 5851 5851 5850 5850 5849 5847 5846
5823 5823 5825 5827 5827 5827 5829 5831 5831 5831 5832 5832 5835 5835 5835 5838 5836 5830 5830 5831 5832 5833 5835 5836 5838 5839 5840 5840 5841 5842 5842 5843 5843 5843 5843 5843 5842 5841 5840 5839 5838 5837 5836 5834
5821 5821 5821 5822 5822 5823 5824 5825 5825 5824 5824 5824 5829 5828 5828 5826 5823 5821 5821 5821 5818 5820 5825 5828 5829 5831 5831 5832 5833 5833 5834 5834 5834 5834 5834 5833 5832 5831 5830 5828 5826 5824 5823 5821
5818 5819 5819 5819 5819 5819 5819 5819 5819 5817 5817 5818 5819 5817 5815 5812 5811 5811 5811 5811 5811 5813 5816 5819 5820 5821 5822 5823 5824 5824 5825 5825 5825 5824 5824 5824 5823 5821 5819 5817 5815 5812 5810 5809
5816 5816 5815 5815 5814 5814 5813 5813 5812 5809 5806 5805 5807 5808 5805 5803 5801 5797 5797 5799 5800 5801 5803 5806 5808 5809 5811 5812 5813 5814 5814 5814 5814 5814 5814 5813 5812 5810 5808 5806 5804 5802 5800 5798
5812 5811 5811 5810 5809 5808 5807 5806 5804 5800 5797 5795 5795 5798 5797 5793 5792 5788 5784 5784 5787 5788 5791 5793 5794 5796 5798 5800 5801 5802 5802 5803 5803 5802 5802 5801 5800 5799 5798 5796 5795 5792 5790 5788
5807 5806 5806 5805 5802 5801 5799 5797 5794 5791 5789 5786 5785 5788 5784 5784 5782 5780 5775 5772 5774 5778 5780 5781 5782 5784 5786 5788 5789 5789 5790 5791 5791 5792 5791 5790 5789 5789 5788 5787 5786 5784 5782 5780
5804 5803 5801 5800 5797 5793 5791 5789 5786 5783 5778 5775 5772 5776 5773 5773 5772 5770 5768 5766 5766 5769 5771 5772 5773 5774 5775 5777 5778 5778 5779 5781 5781 5782 5782 5781 5780 5780 5780 5779 5778 5777 5775 5774
5801 5800 5798 5795 5794 5788 5784 5780 5775 5771 5766 5762 5759 5762 5761 5759 5758 5758 5758 5757 5759 5760 5762 5763 5764 5765 5766 5767 5768 5769 5770 5771 5772 5773 5773 5772 5772 5772 5772 5771 5770 5769 5769 5768
5798 5796 5794 5791 5787 5782 5777 5772 5766 5760 5754 5750 5748 5746 5748 5746 5746 5745 5745 5745 5748 5750 5752 5753 5755 5756 5757 5758 5759 5760 5761 5762 5764 5764 5764 5764 5764 5764 5764 5764 5763 5762 5762 5761
5794 5792 5788 5784 5780 5774 5769 5763 5758 5752 5746 5740 5737 5735 5735 5736 5736 5736 5735 5737 5739 5741 5743 5744 5746 5747 5748 5749 5751 5752 5753 5755 5756 5756 5757 5757 5757 5756 5756 5756 5756 5756 5755 5753
5789 5787 5783 5779 5773 5767 5761 5755 5749 5744 5738 5732 5728 5726 5724 5725 5727 5727 5727 5729 5731 5733 5735 5736 5738 5739 5740 5741 5743 5744 5746 5747 5748 5749 5749 5750 5749 5749 5748 5748 5748 5748 5747 5746
5784 5781 5778 5773 5768 5761 5754 5749 5742 5736 5731 5726 5722 5720 5718 5718 5719 5720 5721 5723 5724 5725 5727 5729 5730 5731 5732 5733 5735 5737 5739 5740 5741 5742 5742 5742 5742 5741 5741 5740 5740 5739 5738 5737
5780 5776 5773 5768 5763 5756 5753 5743 5737 5731 5726 5722 5718 5715 5714 5714 5714 5715 5715 5717 5718 5719 5720 5722 5723 5724 5725 5726 5728 5730 5732 5733 5734 5734 5735 5735 5734 5734 5733 5732 5731 5730 5729 5728
5774 5771 5767 5764 5759 5754 5748 5741 5734 5729 5724 5720 5717 5715 5713 5712 5711 5711 5712 5712 5713 5714 5715 5716 5717 5718 5719 5720 5722 5723 5725 5726 5726 5727 5727 5727 5727 5726 5725 5724 5723 5722 5721 5720
5767 5765 5763 5759 5755 5750 5746 5739 5733 5729 5724 5721 5717 5715 5713 5711 5710 5711 5710 5710 5710 5710 5711 5711 5712 5713 5714 5715 5716 5717 5718 5719 5719 5720 5720 5720 5719 5718 5718 5717 5716 5714 5713 5712
5761 5759 5757 5754 5751 5748 5743 5738 5734 5730 5727 5721 5718 5715 5713 5712 5711 5710 5709 5708 5708 5707 5708 5708 5708 5709 5709 5710 5711 5712 5712 5713 5713 5713 5713 5713 5712 5712 5710 5709 5708 5706 5705 5704
5756 5754 5752 5750 5747 5746 5740 5736 5733 5730 5724 5721 5718 5716 5713 5712 5710 5708 5707 5706 5705 5705 5704 5704 5705 5705 5705 5706 5706 5706 5707 5707 5707 5707 5707 5707 5706 5705 5704 5702 5701 5700 5699 5698
5748 5748 5746 5745 5744 5740 5737 5734 5731 5727 5723 5720 5717 5715 5712 5710 5709 5707 5705 5704 5703 5702 5702 5701 5701 5701 5701 5702 5702 5702 5702 5702 5702 5702 5702 5701 5701 5699 5698 5697 5696 5695 5694 5693
5739 5738 5737 5737 5737 5734 5732 5730 5728 5725 5722 5719 5716 5714 5712 5709 5707 5706 5704 5703 5701 5700 5700 5699 5698 5698 5698 5697 5697 5697 5697 5697 5697 5697 5697 5696 5695 5694 5693 5692 5691 5690 5690 5689
5730 5729 5728 5728 5729 5728 5727 5725 5724 5722 5719 5717 5715 5713 5711 5709 5707 5705 5704 5702 5701 5700 5699 5698 5697 5696 5695 5694 5694 5694 5693 5693 5693 5693 5692 5692 5691 5690 5689 5688 5687 5686 5685 5683
5723 5721 5720 5720 5721 5720 5720 5719 5718 5717 5715 5714 5712 5710 5709 5707 5706 5705 5703 5702 5701 5699 5698 5697 5696 5695 5693 5692 5692 5691 5691 5690 5690 5689 5688 5688 5687 5686 5685 5684 5682 5681 5680 5678